ELY5129 LLBG-LUKK

Flight info

Callsign ELY5129
Flight time 2h 34m
Altitude 36000
Route DAFNA W13 VELOX N71 DESPO DCT VESAR UB545 OKLAM UL619 MAKOL DCT PEVEX DCT PILAT DCT RIPGA DCT USHUZ DCT LIPTA
Aircraft B738/M-VGDW/C

Departure

Time 2026-05-07 06:08
Airport Ben Gurion International Airport (LLBG)

Arrival

Time 2026-05-07 08:43
Airport Chişinău International Airport (LUKK)
Time Latitude Longitude Altitude Speed Heading
2026-05-07 05:38 32.00190 34.87842 143 ft 0 kts 121°
2026-05-07 05:56 32.00191 34.87842 143 ft 1 kts 121°
2026-05-07 05:56 32.00199 34.87826 143 ft 3 kts 122°
2026-05-07 05:56 32.00209 34.87806 143 ft 3 kts 121°
2026-05-07 05:56 32.00219 34.87788 143 ft 3 kts 113°
2026-05-07 05:57 32.00222 34.87768 143 ft 3 kts 68°
2026-05-07 05:57 32.00211 34.87750 143 ft 3 kts 40°
2026-05-07 05:57 32.00195 34.87737 143 ft 2 kts 33°
2026-05-07 05:57 32.00185 34.87729 143 ft 2 kts 33°
2026-05-07 05:58 32.00169 34.87716 143 ft 3 kts 32°
2026-05-07 05:58 32.00151 34.87704 143 ft 3 kts 32°
2026-05-07 05:58 32.00134 34.87691 143 ft 3 kts 31°
2026-05-07 05:58 32.00117 34.87679 143 ft 2 kts 31°
2026-05-07 05:59 32.00115 34.87678 143 ft 0 kts 31°
2026-05-07 06:01 32.00137 34.87693 143 ft 9 kts 31°
2026-05-07 06:01 32.00197 34.87737 143 ft 10 kts 32°
2026-05-07 06:01 32.00256 34.87780 143 ft 10 kts 31°
2026-05-07 06:01 32.00312 34.87820 143 ft 9 kts 31°
2026-05-07 06:02 32.00366 34.87859 143 ft 9 kts 31°
2026-05-07 06:02 32.00418 34.87896 143 ft 9 kts 31°
2026-05-07 06:02 32.00468 34.87932 143 ft 8 kts 31°
2026-05-07 06:02 32.00523 34.87956 143 ft 10 kts 348°
2026-05-07 06:03 32.00586 34.87924 143 ft 10 kts
2026-05-07 06:03 32.00654 34.87965 143 ft 15 kts 31°
2026-05-07 06:03 32.00762 34.88042 143 ft 21 kts 32°
2026-05-07 06:03 32.00898 34.88141 143 ft 23 kts 31°
2026-05-07 06:04 32.01031 34.88236 143 ft 22 kts 31°
2026-05-07 06:04 32.01159 34.88328 143 ft 21 kts 31°
2026-05-07 06:04 32.01279 34.88422 143 ft 20 kts 39°
2026-05-07 06:04 32.01375 34.88537 143 ft 19 kts 52°
2026-05-07 06:05 32.01446 34.88667 143 ft 18 kts 63°
2026-05-07 06:05 32.01491 34.88803 143 ft 17 kts 76°
2026-05-07 06:05 32.01516 34.88939 143 ft 16 kts 79°
2026-05-07 06:05 32.01534 34.89069 143 ft 16 kts 83°
2026-05-07 06:06 32.01586 34.89163 143 ft 15 kts 356°
2026-05-07 06:06 32.01682 34.89142 143 ft 14 kts 350°
2026-05-07 06:06 32.01744 34.89086 143 ft 9 kts 262°
2026-05-07 06:06 32.01743 34.89079 143 ft 0 kts 260°
2026-05-07 06:07 32.01714 34.88889 143 ft 55 kts 260°
2026-05-07 06:07 32.01608 34.88196 143 ft 116 kts 260°
2026-05-07 06:07 32.01433 34.87044 145 ft 168 kts 261°
2026-05-07 06:08 32.01202 34.85557 460 ft 194 kts 260°
2026-05-07 06:08 32.00896 34.84004 1353 ft 190 kts 256°
2026-05-07 06:08 32.00557 34.82527 2298 ft 187 kts 257°
2026-05-07 06:08 32.00226 34.81009 2991 ft 194 kts 257°
2026-05-07 06:09 31.99882 34.79498 3846 ft 192 kts 256°
2026-05-07 06:09 31.99519 34.77917 4346 ft 211 kts 258°
2026-05-07 06:09 31.99219 34.76151 4658 ft 235 kts 266°
2026-05-07 06:09 31.99341 34.74156 5078 ft 254 kts 282°
2026-05-07 06:10 31.99872 34.72084 5665 ft 267 kts 292°
2026-05-07 06:10 32.00579 34.70071 6438 ft 271 kts 294°
2026-05-07 06:10 32.01276 34.67992 7266 ft 276 kts 291°
2026-05-07 06:10 32.02019 34.65838 7752 ft 293 kts 298°
2026-05-07 06:11 32.03322 34.63909 8117 ft 312 kts 319°
2026-05-07 06:11 32.05183 34.62459 8489 ft 330 kts 334°
2026-05-07 06:11 32.07394 34.61599 9089 ft 339 kts 346°
2026-05-07 06:11 32.09702 34.60930 9834 ft 344 kts 345°
2026-05-07 06:12 32.12030 34.60229 10597 ft 347 kts 344°
2026-05-07 06:12 32.14383 34.59518 11355 ft 350 kts 343°
2026-05-07 06:12 32.16749 34.58804 12087 ft 353 kts 343°
2026-05-07 06:12 32.19146 34.58081 12775 ft 357 kts 342°
2026-05-07 06:13 32.21562 34.57350 13448 ft 361 kts 342°
2026-05-07 06:13 32.24006 34.56611 14110 ft 364 kts 342°
2026-05-07 06:13 32.26474 34.55865 14763 ft 368 kts 342°
2026-05-07 06:13 32.28966 34.55111 15407 ft 371 kts 341°
2026-05-07 06:14 32.31482 34.54351 16031 ft 375 kts 341°
2026-05-07 06:14 32.34024 34.53582 16645 ft 378 kts 341°
2026-05-07 06:14 32.36582 34.52808 17249 ft 381 kts 341°
2026-05-07 06:14 32.39162 34.52028 17832 ft 385 kts 341°
2026-05-07 06:15 32.41771 34.51245 18401 ft 388 kts 341°
2026-05-07 06:15 32.44398 34.50456 18967 ft 391 kts 341°
2026-05-07 06:15 32.47045 34.49653 19523 ft 394 kts 341°
2026-05-07 06:15 32.49713 34.48852 20063 ft 397 kts 341°
2026-05-07 06:16 32.52395 34.48042 20598 ft 400 kts 341°
2026-05-07 06:16 32.55102 34.47224 21100 ft 403 kts 341°
2026-05-07 06:16 32.57831 34.46399 21611 ft 406 kts 341°
2026-05-07 06:16 32.60570 34.45571 22101 ft 408 kts 341°
2026-05-07 06:17 32.63334 34.44733 22558 ft 411 kts 341°
2026-05-07 06:17 32.66111 34.43891 23027 ft 413 kts 341°
2026-05-07 06:17 32.68906 34.43042 23461 ft 416 kts 341°
2026-05-07 06:17 32.71719 34.42187 23910 ft 418 kts 341°
2026-05-07 06:18 32.74547 34.41327 24331 ft 421 kts 341°
2026-05-07 06:18 32.77391 34.40462 24752 ft 423 kts 341°
2026-05-07 06:18 32.80252 34.39592 25157 ft 426 kts 341°
2026-05-07 06:18 32.83128 34.38716 25560 ft 428 kts 341°
2026-05-07 06:19 32.86014 34.37836 25944 ft 430 kts 341°
2026-05-07 06:19 32.88922 34.36949 26327 ft 432 kts 341°
2026-05-07 06:19 32.91835 34.36060 26717 ft 433 kts 341°
2026-05-07 06:19 32.94762 34.35166 27042 ft 436 kts 341°
2026-05-07 06:20 32.97709 34.34265 27409 ft 437 kts 341°
2026-05-07 06:20 33.00664 34.33361 27754 ft 439 kts 341°
2026-05-07 06:20 33.03625 34.32455 28083 ft 441 kts 340°
2026-05-07 06:20 33.06568 34.31553 28392 ft 443 kts 340°
2026-05-07 06:21 33.09559 34.30636 28717 ft 444 kts 340°
2026-05-07 06:21 33.12555 34.29717 29039 ft 446 kts 340°
2026-05-07 06:21 33.15566 34.28793 29330 ft 448 kts 340°
2026-05-07 06:21 33.18584 34.27866 29627 ft 449 kts 340°
2026-05-07 06:22 33.21603 34.26938 30057 ft 447 kts 340°
2026-05-07 06:22 33.27604 34.25091 30812 ft 445 kts 340°
2026-05-07 06:22 33.30592 34.24170 31221 ft 443 kts 340°
2026-05-07 06:23 33.33573 34.23251 31554 ft 443 kts 340°
2026-05-07 06:23 33.36556 34.22331 31882 ft 442 kts 340°
2026-05-07 06:23 33.39529 34.21413 32258 ft 440 kts 340°
2026-05-07 06:23 33.42492 34.20497 32612 ft 439 kts 340°
2026-05-07 06:24 33.45451 34.19583 32910 ft 439 kts 340°
2026-05-07 06:24 33.48406 34.18668 33238 ft 438 kts 340°
2026-05-07 06:24 33.51351 34.17760 33601 ft 437 kts 340°
2026-05-07 06:24 33.54297 34.16852 33860 ft 437 kts 340°
2026-05-07 06:25 33.57239 34.15941 34181 ft 436 kts 340°
2026-05-07 06:25 33.60174 34.15030 34458 ft 436 kts 340°
2026-05-07 06:25 33.63117 34.14115 34681 ft 437 kts 340°
2026-05-07 06:25 33.66058 34.13199 34941 ft 437 kts 340°
2026-05-07 06:26 33.69001 34.12282 35228 ft 436 kts 339°
2026-05-07 06:26 33.71940 34.11366 35448 ft 437 kts 339°
2026-05-07 06:26 33.74886 34.10447 35669 ft 438 kts 339°
2026-05-07 06:26 33.77836 34.09527 35916 ft 438 kts 339°
2026-05-07 06:27 33.80827 34.08747 36115 ft 443 kts 344°
2026-05-07 06:27 33.83914 34.08297 36122 ft 450 kts 349°
2026-05-07 06:27 33.90178 34.08019 36131 ft 450 kts 352°
2026-05-07 06:28 33.96426 34.07849 36133 ft 449 kts 352°
2026-05-07 06:28 34.02673 34.07664 36134 ft 449 kts 352°
2026-05-07 06:29 34.07865 34.07505 36135 ft 449 kts 352°
2026-05-07 06:29 34.14116 34.07310 36136 ft 449 kts 352°
2026-05-07 06:30 34.20360 34.07115 36136 ft 449 kts 352°
2026-05-07 06:30 34.26614 34.06919 36137 ft 449 kts 352°
2026-05-07 06:31 34.32861 34.06722 36138 ft 449 kts 352°
2026-05-07 06:31 34.39108 34.06525 36138 ft 449 kts 352°
2026-05-07 06:32 34.45319 34.06328 36140 ft 449 kts 352°
2026-05-07 06:32 34.51555 34.06131 36140 ft 448 kts 352°
2026-05-07 06:33 34.57788 34.05933 36140 ft 448 kts 352°
2026-05-07 06:33 34.64018 34.05734 36140 ft 448 kts 352°
2026-05-07 06:34 34.70251 34.05536 36141 ft 448 kts 352°
2026-05-07 06:34 34.76480 34.05337 36141 ft 448 kts 352°
2026-05-07 06:35 34.82702 34.05138 36141 ft 447 kts 352°
2026-05-07 06:35 34.88912 34.04938 36143 ft 446 kts 352°
2026-05-07 06:36 34.95123 34.04740 36151 ft 446 kts 352°
2026-05-07 06:36 35.01327 34.04541 36152 ft 446 kts 352°
2026-05-07 06:37 35.07518 34.04341 36153 ft 445 kts 352°
2026-05-07 06:37 35.13704 34.04142 36155 ft 444 kts 353°
2026-05-07 06:38 35.19890 34.03943 36145 ft 444 kts 353°
2026-05-07 06:38 35.26053 34.03745 36156 ft 443 kts 353°
2026-05-07 06:39 35.32213 34.03545 36167 ft 442 kts 353°
2026-05-07 06:39 35.38358 34.03344 36168 ft 442 kts 353°
2026-05-07 06:40 35.44500 34.03146 36167 ft 441 kts 353°
2026-05-07 06:40 35.50625 34.02948 36167 ft 440 kts 353°
2026-05-07 06:41 35.56747 34.02749 36166 ft 440 kts 353°
2026-05-07 06:41 35.62861 34.02550 36166 ft 439 kts 353°
2026-05-07 06:42 35.68935 34.02352 36165 ft 439 kts 353°
2026-05-07 06:42 35.75033 34.02152 36165 ft 438 kts 353°
2026-05-07 06:43 35.81137 34.01952 36164 ft 439 kts 353°
2026-05-07 06:43 35.87232 34.01731 36160 ft 436 kts 350°
2026-05-07 06:44 35.93000 33.99957 36164 ft 424 kts 331°
2026-05-07 06:44 35.98201 33.96583 36162 ft 421 kts 325°
2026-05-07 06:45 36.03210 33.92843 36162 ft 421 kts 324°
2026-05-07 06:45 36.08202 33.89065 36162 ft 421 kts 324°
2026-05-07 06:46 36.13188 33.85278 36162 ft 421 kts 324°
2026-05-07 06:46 36.18174 33.81485 36162 ft 420 kts 324°
2026-05-07 06:47 36.23152 33.77696 36163 ft 420 kts 324°
2026-05-07 06:47 36.28134 33.73898 36164 ft 421 kts 325°
2026-05-07 06:48 36.33118 33.70094 36167 ft 420 kts 324°
2026-05-07 06:48 36.38093 33.66288 36173 ft 420 kts 325°
2026-05-07 06:49 36.43061 33.62479 36174 ft 420 kts 324°
2026-05-07 06:49 36.48020 33.58673 36169 ft 418 kts 325°
2026-05-07 06:50 36.52969 33.54869 36169 ft 418 kts 325°
2026-05-07 06:50 36.57888 33.51107 36170 ft 418 kts 325°
2026-05-07 06:51 36.62854 33.47325 36175 ft 418 kts 325°
2026-05-07 06:51 36.67799 33.43518 36178 ft 418 kts 325°
2026-05-07 06:52 36.72738 33.39698 36178 ft 418 kts 325°
2026-05-07 06:52 36.77672 33.35875 36179 ft 417 kts 325°
2026-05-07 06:53 36.82601 33.32052 36181 ft 417 kts 325°
2026-05-07 06:53 36.87183 33.27679 36182 ft 414 kts 314°
2026-05-07 06:54 36.91182 33.22526 36182 ft 413 kts 311°
2026-05-07 06:54 36.95064 33.17239 36185 ft 413 kts 311°
2026-05-07 06:55 36.98942 33.11941 36186 ft 413 kts 311°
2026-05-07 06:55 37.02810 33.06643 36196 ft 412 kts 311°
2026-05-07 06:56 37.06679 33.01335 36199 ft 412 kts 311°
2026-05-07 06:56 37.10550 32.96040 36201 ft 412 kts 311°
2026-05-07 06:57 37.14433 32.90758 36202 ft 412 kts 311°
2026-05-07 06:57 37.18281 32.85490 36205 ft 412 kts 311°
2026-05-07 06:58 37.22142 32.80181 36207 ft 412 kts 311°
2026-05-07 06:58 37.26003 32.74862 36209 ft 412 kts 311°
2026-05-07 06:59 37.29856 32.69543 36211 ft 412 kts 311°
2026-05-07 06:59 37.33703 32.64221 36213 ft 412 kts 311°
2026-05-07 07:00 37.37554 32.58886 36215 ft 412 kts 311°
2026-05-07 07:00 37.41398 32.53552 36217 ft 411 kts 311°
2026-05-07 07:01 37.45248 32.48231 36219 ft 411 kts 312°
2026-05-07 07:01 37.49084 32.42908 36221 ft 410 kts 311°
2026-05-07 07:02 37.52908 32.37563 36222 ft 410 kts 311°
2026-05-07 07:02 37.56723 32.32217 36223 ft 410 kts 311°
2026-05-07 07:03 37.60541 32.26860 36221 ft 410 kts 312°
2026-05-07 07:03 37.64331 32.21543 36221 ft 410 kts 312°
2026-05-07 07:04 37.68144 32.16190 36222 ft 410 kts 312°
2026-05-07 07:04 37.71962 32.10824 36221 ft 410 kts 312°
2026-05-07 07:05 37.75771 32.05456 36221 ft 410 kts 312°
2026-05-07 07:05 37.79576 32.00083 36221 ft 410 kts 312°
2026-05-07 07:06 37.83383 31.94701 36221 ft 410 kts 312°
2026-05-07 07:06 37.87186 31.89318 36220 ft 410 kts 312°
2026-05-07 07:07 37.91028 31.83975 36218 ft 410 kts 312°
2026-05-07 07:07 37.94836 31.78597 36224 ft 410 kts 312°
2026-05-07 07:08 37.98631 31.73197 36228 ft 410 kts 312°
2026-05-07 07:08 38.02425 31.67785 36230 ft 410 kts 312°
2026-05-07 07:09 38.06213 31.62378 36230 ft 410 kts 312°
2026-05-07 07:09 38.09978 31.56996 36230 ft 410 kts 312°
2026-05-07 07:10 38.13759 31.51577 36230 ft 410 kts 312°
2026-05-07 07:10 38.17534 31.46149 36230 ft 410 kts 312°
2026-05-07 07:11 38.21302 31.40722 36230 ft 409 kts 312°
2026-05-07 07:11 38.25066 31.35292 36230 ft 409 kts 312°
2026-05-07 07:12 38.28854 31.29890 36230 ft 409 kts 312°
2026-05-07 07:12 38.32623 31.24487 36230 ft 408 kts 312°
2026-05-07 07:13 38.36374 31.19054 36230 ft 408 kts 312°
2026-05-07 07:13 38.40111 31.13623 36230 ft 407 kts 312°
2026-05-07 07:14 38.43847 31.08183 36230 ft 408 kts 312°
2026-05-07 07:14 38.47878 31.03140 36230 ft 406 kts 324°
2026-05-07 07:15 38.52885 30.99792 36230 ft 408 kts 335°
2026-05-07 07:15 38.58162 30.97126 36230 ft 408 kts 337°
2026-05-07 07:16 38.63473 30.94541 36230 ft 408 kts 337°
2026-05-07 07:16 38.68779 30.91971 36230 ft 407 kts 337°
2026-05-07 07:17 38.74077 30.89407 36230 ft 407 kts 337°
2026-05-07 07:17 38.79338 30.86859 36230 ft 407 kts 337°
2026-05-07 07:18 38.84642 30.84313 36230 ft 407 kts 338°
2026-05-07 07:18 38.89944 30.81757 36230 ft 407 kts 338°
2026-05-07 07:19 38.95243 30.79191 36230 ft 407 kts 338°
2026-05-07 07:19 39.00535 30.76622 36230 ft 407 kts 338°
2026-05-07 07:20 39.05827 30.74049 36230 ft 407 kts 338°
2026-05-07 07:20 39.11122 30.71469 36230 ft 407 kts 338°
2026-05-07 07:21 39.16403 30.68891 36230 ft 405 kts 338°
2026-05-07 07:21 39.21675 30.66315 36230 ft 405 kts 338°
2026-05-07 07:22 39.26953 30.63744 36230 ft 405 kts 338°
2026-05-07 07:22 39.32190 30.61181 36228 ft 405 kts 338°
2026-05-07 07:23 39.37455 30.58591 36228 ft 405 kts 338°
2026-05-07 07:23 39.41867 30.56415 36228 ft 405 kts 338°
2026-05-07 07:24 39.47122 30.53821 36229 ft 404 kts 338°
2026-05-07 07:24 39.52335 30.51247 36229 ft 404 kts 338°
2026-05-07 07:25 39.60107 30.47044 36227 ft 403 kts 334°
2026-05-07 07:26 39.65201 30.44014 36228 ft 402 kts 334°
2026-05-07 07:26 39.70288 30.41015 36228 ft 402 kts 334°
2026-05-07 07:27 39.75389 30.38016 36229 ft 402 kts 334°
2026-05-07 07:27 39.80485 30.35022 36229 ft 402 kts 335°
2026-05-07 07:28 39.85581 30.32025 36228 ft 402 kts 335°
2026-05-07 07:28 39.90679 30.29060 36226 ft 401 kts 335°
2026-05-07 07:29 39.95768 30.26084 36223 ft 401 kts 335°
2026-05-07 07:29 40.00849 30.23100 36219 ft 401 kts 335°
2026-05-07 07:30 40.05934 30.20106 36214 ft 401 kts 335°
2026-05-07 07:30 40.11016 30.17107 36211 ft 401 kts 335°
2026-05-07 07:31 40.16096 30.14104 36209 ft 401 kts 335°
2026-05-07 07:31 40.21177 30.11095 36203 ft 401 kts 335°
2026-05-07 07:32 40.26255 30.08082 36197 ft 401 kts 335°
2026-05-07 07:32 40.31309 30.05078 36184 ft 402 kts 335°
2026-05-07 07:33 40.36401 30.02048 36177 ft 402 kts 335°
2026-05-07 07:33 40.41487 29.99015 36174 ft 402 kts 334°
2026-05-07 07:34 40.46574 29.95977 36173 ft 401 kts 334°
2026-05-07 07:34 40.51657 29.92936 36172 ft 401 kts 334°
2026-05-07 07:35 40.56739 29.89891 36172 ft 402 kts 335°
2026-05-07 07:35 40.61834 29.86832 36170 ft 402 kts 335°
2026-05-07 07:36 40.66924 29.83771 36170 ft 402 kts 335°
2026-05-07 07:36 40.72015 29.80703 36169 ft 403 kts 335°
2026-05-07 07:37 40.77117 29.77626 36164 ft 403 kts 334°
2026-05-07 07:37 40.82217 29.74544 36162 ft 403 kts 335°
2026-05-07 07:38 40.87320 29.71455 36159 ft 404 kts 335°
2026-05-07 07:38 40.92404 29.68386 36156 ft 404 kts 335°
2026-05-07 07:39 40.97521 29.65288 36154 ft 405 kts 335°
2026-05-07 07:39 41.02635 29.62171 36150 ft 405 kts 335°
2026-05-07 07:40 41.07760 29.59039 36148 ft 406 kts 335°
2026-05-07 07:40 41.12881 29.55905 36148 ft 405 kts 335°
2026-05-07 07:41 41.18002 29.52772 36147 ft 405 kts 335°
2026-05-07 07:41 41.23325 29.50291 36147 ft 406 kts 342°
2026-05-07 07:42 41.28756 29.48238 36148 ft 406 kts 343°
2026-05-07 07:42 41.34202 29.46173 36150 ft 407 kts 343°
2026-05-07 07:43 41.39646 29.44100 36150 ft 407 kts 343°
2026-05-07 07:43 41.45091 29.42022 36151 ft 407 kts 343°
2026-05-07 07:44 41.50496 29.39954 36150 ft 407 kts 343°
2026-05-07 07:44 41.55984 29.37867 36150 ft 408 kts 343°
2026-05-07 07:45 41.61403 29.35803 36148 ft 408 kts 343°
2026-05-07 07:45 41.66859 29.33713 36148 ft 408 kts 343°
2026-05-07 07:46 41.72308 29.31621 36148 ft 408 kts 343°
2026-05-07 07:46 41.77760 29.29522 36146 ft 408 kts 343°
2026-05-07 07:47 41.83216 29.27418 36141 ft 408 kts 343°
2026-05-07 07:47 41.88668 29.25324 36142 ft 408 kts 343°
2026-05-07 07:48 41.94116 29.23220 36142 ft 408 kts 343°
2026-05-07 07:48 41.99563 29.21104 36142 ft 407 kts 343°
2026-05-07 07:49 42.05022 29.18978 36142 ft 409 kts 343°
2026-05-07 07:49 42.10494 29.16844 36142 ft 409 kts 343°
2026-05-07 07:50 42.15956 29.14713 36142 ft 409 kts 343°
2026-05-07 07:50 42.21446 29.12679 36143 ft 409 kts 345°
2026-05-07 07:51 42.26966 29.10743 36142 ft 410 kts 344°
2026-05-07 07:51 42.32480 29.08789 36143 ft 410 kts 344°
2026-05-07 07:52 42.37998 29.06823 36143 ft 410 kts 344°
2026-05-07 07:52 42.43507 29.04853 36143 ft 410 kts 344°
2026-05-07 07:53 42.48982 29.02891 36143 ft 410 kts 344°
2026-05-07 07:53 42.54500 29.00931 36143 ft 410 kts 344°
2026-05-07 07:54 42.60012 28.98963 36143 ft 410 kts 344°
2026-05-07 07:54 42.65535 28.96983 36143 ft 411 kts 344°
2026-05-07 07:55 42.71063 28.94995 36143 ft 411 kts 344°
2026-05-07 07:55 42.76584 28.93005 36142 ft 411 kts 344°
2026-05-07 07:56 42.82105 28.91010 36141 ft 411 kts 344°
2026-05-07 07:56 42.87628 28.89011 36140 ft 411 kts 344°
2026-05-07 07:57 42.93160 28.87005 36141 ft 411 kts 344°
2026-05-07 07:57 42.98692 28.84994 36141 ft 411 kts 344°
2026-05-07 07:58 43.04224 28.82980 36141 ft 411 kts 344°
2026-05-07 07:58 43.09752 28.80964 36141 ft 411 kts 344°
2026-05-07 07:59 43.15289 28.78940 36141 ft 412 kts 344°
2026-05-07 07:59 43.20832 28.76911 36141 ft 412 kts 344°
2026-05-07 08:00 43.26369 28.74880 36141 ft 412 kts 344°
2026-05-07 08:00 43.31868 28.72859 36141 ft 412 kts 344°
2026-05-07 08:01 43.37405 28.70820 36141 ft 412 kts 344°
2026-05-07 08:01 43.42944 28.68777 36142 ft 413 kts 344°
2026-05-07 08:02 43.48494 28.66725 36142 ft 413 kts 344°
2026-05-07 08:02 43.54039 28.64671 36142 ft 413 kts 344°
2026-05-07 08:03 43.59585 28.62614 36141 ft 413 kts 344°
2026-05-07 08:03 43.65124 28.60554 36142 ft 413 kts 344°
2026-05-07 08:04 43.70668 28.58489 36141 ft 412 kts 344°
2026-05-07 08:04 43.76206 28.56424 36142 ft 412 kts 344°
2026-05-07 08:05 43.81749 28.54366 36142 ft 412 kts 344°
2026-05-07 08:05 43.87286 28.52290 36142 ft 412 kts 344°
2026-05-07 08:06 43.92785 28.50221 36142 ft 412 kts 344°
2026-05-07 08:06 43.98320 28.48134 36142 ft 412 kts 344°
2026-05-07 08:07 44.03844 28.46050 36140 ft 412 kts 344°
2026-05-07 08:07 44.09380 28.43885 36140 ft 413 kts 342°
2026-05-07 08:08 44.14822 28.41334 36140 ft 413 kts 340°
2026-05-07 08:08 44.20258 28.38773 36141 ft 413 kts 341°
2026-05-07 08:09 44.25706 28.36232 36141 ft 413 kts 341°
2026-05-07 08:09 44.31150 28.33700 36141 ft 413 kts 341°
2026-05-07 08:10 44.36601 28.31164 36141 ft 413 kts 341°
2026-05-07 08:10 44.42059 28.28639 36141 ft 414 kts 341°
2026-05-07 08:11 44.47526 28.26108 36141 ft 413 kts 341°
2026-05-07 08:11 44.52987 28.23576 36140 ft 414 kts 341°
2026-05-07 08:12 44.58461 28.21031 36140 ft 415 kts 341°
2026-05-07 08:12 44.63931 28.18466 36140 ft 414 kts 341°
2026-05-07 08:13 44.69395 28.15896 36140 ft 415 kts 341°
2026-05-07 08:13 44.74880 28.13310 36139 ft 415 kts 341°
2026-05-07 08:14 44.80359 28.10727 36139 ft 415 kts 341°
2026-05-07 08:14 44.85825 28.08025 36139 ft 416 kts 339°
2026-05-07 08:15 44.91237 28.05121 36139 ft 417 kts 339°
2026-05-07 08:15 44.95755 28.02720 36137 ft 417 kts 339°
2026-05-07 08:16 45.02093 27.99341 35729 ft 421 kts 339°
2026-05-07 08:16 45.04826 27.97881 35153 ft 419 kts 339°
2026-05-07 08:16 45.06666 27.96897 34794 ft 417 kts 339°
2026-05-07 08:16 45.10236 27.94987 34140 ft 412 kts 339°
2026-05-07 08:17 45.12903 27.93557 33659 ft 408 kts 339°
2026-05-07 08:17 45.14693 27.92600 33334 ft 405 kts 339°
2026-05-07 08:17 45.17394 27.91534 32858 ft 403 kts 351°
2026-05-07 08:17 45.20176 27.91377 32397 ft 401 kts
2026-05-07 08:18 45.22934 27.91995 31902 ft 401 kts
2026-05-07 08:18 45.25610 27.92864 31443 ft 399 kts 12°
2026-05-07 08:18 45.28313 27.93896 30982 ft 396 kts 13°
2026-05-07 08:18 45.30957 27.94958 30535 ft 393 kts 13°
2026-05-07 08:19 45.33547 27.96004 30101 ft 391 kts 13°
2026-05-07 08:19 45.36184 27.97071 29668 ft 388 kts 13°
2026-05-07 08:19 45.38734 27.98106 29242 ft 385 kts 13°
2026-05-07 08:19 45.41304 27.99151 28809 ft 383 kts 13°
2026-05-07 08:20 45.43861 28.00191 28377 ft 380 kts 14°
2026-05-07 08:20 45.46392 28.01221 27949 ft 378 kts 14°
2026-05-07 08:20 45.48917 28.02228 27522 ft 375 kts 14°
2026-05-07 08:20 45.51425 28.03237 27095 ft 373 kts 14°
2026-05-07 08:21 45.53911 28.04246 26671 ft 371 kts 14°
2026-05-07 08:21 45.56387 28.05256 26248 ft 369 kts 15°
2026-05-07 08:21 45.58849 28.06262 25825 ft 367 kts 15°
2026-05-07 08:21 45.61289 28.07262 25404 ft 365 kts 15°
2026-05-07 08:22 45.63724 28.08261 24984 ft 362 kts 15°
2026-05-07 08:22 45.66141 28.09255 24565 ft 361 kts 15°
2026-05-07 08:22 45.68546 28.10243 24146 ft 359 kts 15°
2026-05-07 08:22 45.70936 28.11226 23729 ft 357 kts 16°
2026-05-07 08:23 45.73321 28.12208 23313 ft 355 kts 15°
2026-05-07 08:23 45.75685 28.13180 22899 ft 353 kts 15°
2026-05-07 08:23 45.78037 28.14150 22489 ft 351 kts 16°
2026-05-07 08:23 45.80396 28.15080 22074 ft 350 kts 14°
2026-05-07 08:24 45.82746 28.15956 21662 ft 348 kts 14°
2026-05-07 08:24 45.85081 28.16828 21255 ft 346 kts 14°
2026-05-07 08:24 45.87406 28.17703 20849 ft 344 kts 14°
2026-05-07 08:24 45.89715 28.18574 20451 ft 343 kts 14°
2026-05-07 08:25 45.92013 28.19444 20054 ft 341 kts 14°
2026-05-07 08:25 45.94302 28.20312 19656 ft 339 kts 14°
2026-05-07 08:25 45.96576 28.21176 19257 ft 337 kts 14°
2026-05-07 08:25 45.98807 28.22026 18866 ft 336 kts 14°
2026-05-07 08:26 46.03302 28.23739 18081 ft 332 kts 14°
2026-05-07 08:26 46.05532 28.24590 17691 ft 331 kts 14°
2026-05-07 08:26 46.07750 28.25437 17302 ft 329 kts 14°
2026-05-07 08:27 46.09959 28.26282 16915 ft 328 kts 14°
2026-05-07 08:27 46.12160 28.27115 16529 ft 326 kts 14°
2026-05-07 08:27 46.14347 28.27942 16145 ft 325 kts 14°
2026-05-07 08:27 46.16531 28.28771 15762 ft 323 kts 15°
2026-05-07 08:28 46.18699 28.29596 15382 ft 322 kts 15°
2026-05-07 08:28 46.20868 28.30424 14939 ft 323 kts 15°
2026-05-07 08:28 46.23036 28.31252 14521 ft 323 kts 15°
2026-05-07 08:28 46.25204 28.32083 14130 ft 321 kts 15°
2026-05-07 08:29 46.27364 28.32911 13746 ft 320 kts 15°
2026-05-07 08:29 46.29508 28.33734 13366 ft 319 kts 15°
2026-05-07 08:29 46.31649 28.34557 12988 ft 318 kts 15°
2026-05-07 08:29 46.33779 28.35376 12611 ft 316 kts 15°
2026-05-07 08:30 46.35903 28.36194 12233 ft 315 kts 15°
2026-05-07 08:30 46.38021 28.37010 11854 ft 314 kts 15°
2026-05-07 08:30 46.40125 28.37822 11480 ft 313 kts 15°
2026-05-07 08:30 46.42229 28.38632 11104 ft 312 kts 15°
2026-05-07 08:31 46.44325 28.39431 10731 ft 311 kts 15°
2026-05-07 08:31 46.46409 28.40231 10360 ft 310 kts 15°
2026-05-07 08:31 46.48476 28.41030 10160 ft 303 kts 15°
2026-05-07 08:31 46.50478 28.41805 10081 ft 292 kts 15°
2026-05-07 08:32 46.52407 28.42554 10005 ft 282 kts 15°
2026-05-07 08:32 46.54283 28.43283 9773 ft 278 kts 15°
2026-05-07 08:32 46.56151 28.44010 9467 ft 277 kts 15°
2026-05-07 08:32 46.58011 28.44734 9157 ft 276 kts 15°
2026-05-07 08:33 46.59864 28.45456 8844 ft 276 kts 15°
2026-05-07 08:33 46.61713 28.46177 8530 ft 275 kts 15°
2026-05-07 08:33 46.63557 28.46897 8215 ft 274 kts 15°
2026-05-07 08:33 46.65379 28.47608 7902 ft 274 kts 16°
2026-05-07 08:34 46.67216 28.48326 7586 ft 273 kts 16°
2026-05-07 08:34 46.69047 28.49038 7269 ft 273 kts 16°
2026-05-07 08:34 46.70906 28.49763 6944 ft 272 kts 16°
2026-05-07 08:34 46.72706 28.50470 6629 ft 272 kts 16°
2026-05-07 08:35 46.74510 28.51275 6307 ft 271 kts 21°
2026-05-07 08:35 46.76259 28.52287 5986 ft 270 kts 24°
2026-05-07 08:35 46.78001 28.53340 5658 ft 271 kts 24°
2026-05-07 08:35 46.79744 28.54363 5325 ft 271 kts 23°
2026-05-07 08:36 46.81503 28.55381 4995 ft 271 kts 23°
2026-05-07 08:36 46.83228 28.56370 4617 ft 262 kts 22°
2026-05-07 08:36 46.84814 28.57287 4348 ft 250 kts 22°
2026-05-07 08:36 46.86392 28.58193 4068 ft 238 kts 22°
2026-05-07 08:37 46.87874 28.59123 3814 ft 226 kts 26°
2026-05-07 08:37 46.89275 28.60076 3621 ft 217 kts 26°
2026-05-07 08:37 46.90587 28.60990 3528 ft 198 kts 28°
2026-05-07 08:37 46.91535 28.62288 3393 ft 184 kts 68°
2026-05-07 08:38 46.91847 28.64076 3479 ft 187 kts 83°
2026-05-07 08:38 46.92019 28.66048 3535 ft 198 kts 89°
2026-05-07 08:38 46.92104 28.68058 3344 ft 199 kts 92°
2026-05-07 08:38 46.92164 28.70060 3075 ft 194 kts 92°
2026-05-07 08:39 46.92217 28.71989 2812 ft 187 kts 93°
2026-05-07 08:39 46.92267 28.73849 2591 ft 176 kts 94°
2026-05-07 08:39 46.92313 28.75582 2355 ft 166 kts 94°
2026-05-07 08:39 46.92357 28.77247 2130 ft 162 kts 94°
2026-05-07 08:40 46.92399 28.78872 1919 ft 159 kts 94°
2026-05-07 08:40 46.92441 28.80477 1713 ft 157 kts 92°
2026-05-07 08:40 46.92483 28.82039 1506 ft 155 kts 92°
2026-05-07 08:40 46.92525 28.83625 1303 ft 154 kts 92°
2026-05-07 08:41 46.92566 28.85191 1099 ft 154 kts 92°
2026-05-07 08:41 46.92607 28.86763 890 ft 155 kts 92°
2026-05-07 08:41 46.92652 28.88342 677 ft 155 kts 91°
2026-05-07 08:41 46.92703 28.89893 491 ft 153 kts 93°
2026-05-07 08:42 46.92739 28.91441 339 ft 149 kts 92°
2026-05-07 08:42 46.92771 28.92860 337 ft 123 kts 88°
2026-05-07 08:42 46.92798 28.93922 336 ft 86 kts 89°
2026-05-07 08:42 46.92816 28.94617 336 ft 55 kts 88°
2026-05-07 08:43 46.92825 28.95001 336 ft 21 kts 88°
2026-05-07 08:43 46.92889 28.95118 336 ft 15 kts 358°
2026-05-07 08:43 46.92995 28.95106 336 ft 16 kts 340°
2026-05-07 08:43 46.93036 28.94974 336 ft 15 kts 276°
2026-05-07 08:44 46.93047 28.94828 336 ft 14 kts 276°
2026-05-07 08:44 46.93057 28.94692 336 ft 13 kts 276°
2026-05-07 08:44 46.93068 28.94537 336 ft 16 kts 275°
2026-05-07 08:44 46.93079 28.94383 336 ft 16 kts 277°
2026-05-07 08:45 46.93096 28.94169 336 ft 25 kts 276°
2026-05-07 08:45 46.93115 28.93932 336 ft 23 kts 276°
2026-05-07 08:45 46.93131 28.93707 336 ft 22 kts 276°
2026-05-07 08:45 46.93146 28.93516 336 ft 15 kts 277°
2026-05-07 08:46 46.93218 28.93451 336 ft 14 kts
2026-05-07 08:46 46.93288 28.93463 336 ft 0 kts
2026-05-07 08:46 46.93289 28.93463 336 ft 2 kts
2026-05-07 08:46 46.93318 28.93485 336 ft 7 kts 64°
2026-05-07 08:47 46.93316 28.93556 336 ft 7 kts 95°
2026-05-07 08:47 46.93309 28.93628 336 ft 7 kts 91°
2026-05-07 08:47 46.93342 28.93663 336 ft 7 kts
2026-05-07 08:47 46.93365 28.93667 336 ft 0 kts